Port Huron, MI

7:22 PM EDT on May 29, 2017 (GMT -0400)
Saint Clair County International

Weather History for KPHN - February, 2013

Change the Weather History Date:

Thursday, February 28, 2013

  Actual Average (KMTC) Record (KMTC)
Temperature  
Mean Temperature 32 °F -  
Max Temperature 35 °F 37 °F 63 °F (2016)
Min Temperature 30 °F 21 °F -7 °F (2014)
Degree Days  
Heating Degree Days 32    
Moisture  
Dew Point 31 °F    
Average Humidity 89    
Maximum Humidity 100    
Minimum Humidity 80    
Precipitation  
Precipitation 0.00 in - - ()
Sea Level Pressure  
Sea Level Pressure 29.70 in    
Wind  
Wind Speed 5 mph (NNW)    
Max Wind Speed 15 mph    
Max Gust Speed 28 mph    
Visibility 6 miles    
Events Snow    
Averages and records for this station are not official NWS values.
T = Trace of Precipitation, MM = Missing Value Source: NWS Daily Summary

Daily Weather History Graph

Daily Weather History Graph

Search for Another Location

Airport or City:

Trip Planner

Search our weather history database for the weather conditions in past years. The results will help you decide how hot, cold, wet, or windy it might be!

Date:

Astronomy

Feb. 28, 2013 Rise Set
Actual Time 7:07 AM EST 6:18 PM EST
Civil Twilight 6:38 AM EST 6:47 PM EST
Nautical Twilight 6:06 AM EST 7:19 PM EST
Astronomical Twilight 5:33 AM EST 7:52 PM EST
Moon 9:51 PM EST (2/28) 8:10 AM EST (2/28)
Length of Visible Light 12h 08m
Length of Day
11h 11m
Waning Gibbous, 91% of the Moon is Illuminated
Feb 28
Waning Gibbous
Mar 4
Last Quarter
Mar 11
New
Mar 19
First Quarter
Mar 27
Full

Hourly Weather History & Observations

Time (EST) Temp. Windchill Dew Point Humidity Pressure Visibility Wind Dir Wind Speed Gust Speed Precip Events Conditions
12:19 AM 33.8 °F - 32.0 °F 93% 29.54 in 4.0 mi Calm Calm - N/A   Overcast
12:39 AM 33.8 °F - 33.8 °F 100% 29.54 in 4.0 mi Calm Calm - N/A   Overcast
12:58 AM 33.8 °F - 33.8 °F 100% 29.54 in 5.0 mi Calm Calm - N/A   Overcast
1:19 AM 33.8 °F - 32.0 °F 93% 29.54 in 4.0 mi Calm Calm - N/A   Overcast
1:38 AM 33.8 °F - 32.0 °F 93% 29.54 in 3.0 mi Calm Calm - N/A   Overcast
1:58 AM 33.8 °F - 33.8 °F 100% 29.54 in 3.0 mi Calm Calm - N/A Snow Light Snow
2:19 AM 33.8 °F - 32.0 °F 93% 29.54 in 2.0 mi Calm Calm - N/A Snow Light Snow
2:38 AM 33.8 °F - 32.0 °F 93% 29.53 in 1.2 mi Calm Calm - N/A Snow Light Snow
2:59 AM 33.8 °F - 32.0 °F 93% 29.53 in 1.5 mi Calm Calm - N/A Snow Light Snow
3:19 AM 33.8 °F - 32.0 °F 93% 29.52 in 1.5 mi Calm Calm - N/A Snow Light Snow
3:38 AM 33.8 °F 30.8 °F 32.0 °F 93% 29.52 in 1.5 mi SW 3.5 mph - N/A Snow Light Snow
3:59 AM 33.8 °F - 32.0 °F 93% 29.52 in 1.5 mi Calm Calm - N/A Snow Light Snow
4:18 AM 33.8 °F 30.8 °F 33.8 °F 100% 29.52 in 2.0 mi WSW 3.5 mph - N/A Snow Light Snow
4:39 AM 33.8 °F - 33.8 °F 100% 29.53 in 2.5 mi Calm Calm - N/A Snow Light Snow
4:58 AM 33.8 °F - 33.8 °F 100% 29.53 in 2.5 mi Calm Calm - N/A Snow Light Snow
5:18 AM 33.8 °F - 32.0 °F 93% 29.54 in 2.0 mi Calm Calm - N/A Snow Light Snow
5:39 AM 33.8 °F - 32.0 °F 93% 29.54 in 2.5 mi Calm Calm - N/A Snow Light Snow
5:58 AM 33.8 °F 29.6 °F 33.8 °F 100% 29.55 in 3.0 mi NW 4.6 mph - N/A Snow Light Snow
6:19 AM 33.8 °F 29.6 °F 33.8 °F 100% 29.56 in 2.0 mi NNW 4.6 mph - N/A Snow Light Snow
6:39 AM 33.8 °F 26.4 °F 33.8 °F 100% 29.56 in 2.0 mi North 9.2 mph - N/A Snow Light Snow
6:58 AM 33.8 °F 27.7 °F 32.0 °F 93% 29.56 in 3.0 mi North 6.9 mph - N/A Snow Light Snow
7:19 AM 33.8 °F 27.7 °F 33.8 °F 100% 29.57 in 4.0 mi North 6.9 mph - N/A Snow Light Snow
7:38 AM 33.8 °F 26.4 °F 33.8 °F 100% 29.58 in 4.0 mi North 9.2 mph - N/A Snow Light Snow
7:59 AM 33.8 °F 25.8 °F 32.0 °F 93% 29.59 in 7.0 mi North 10.4 mph - N/A Snow Light Snow
8:19 AM 33.8 °F 27.0 °F 32.0 °F 93% 29.60 in 7.0 mi North 8.1 mph - N/A Snow Light Snow
8:39 AM 33.8 °F 27.7 °F 32.0 °F 93% 29.61 in 7.0 mi North 6.9 mph 16.1 mph N/A Snow Light Snow
8:59 AM 35.6 °F 27.1 °F 32.0 °F 87% 29.61 in 10.0 mi North 12.7 mph 18.4 mph N/A   Overcast
9:18 AM 35.6 °F 28.6 °F 32.0 °F 87% 29.62 in 10.0 mi North 9.2 mph 18.4 mph N/A   Overcast
9:39 AM 35.6 °F 28.0 °F 32.0 °F 87% 29.63 in 10.0 mi North 10.4 mph 17.3 mph N/A Snow Light Snow
9:59 AM 35.6 °F 27.5 °F 32.0 °F 87% 29.63 in 10.0 mi North 11.5 mph 18.4 mph N/A   Overcast
10:19 AM 35.6 °F 28.6 °F 32.0 °F 87% 29.64 in 10.0 mi North 9.2 mph 17.3 mph N/A   Overcast
10:38 AM 35.6 °F 27.5 °F 32.0 °F 87% 29.65 in 10.0 mi North 11.5 mph 18.4 mph N/A   Overcast
10:59 AM 35.6 °F 27.5 °F 32.0 °F 87% 29.66 in 7.0 mi North 11.5 mph 18.4 mph N/A   Drizzle
11:19 AM 35.6 °F 28.0 °F 32.0 °F 87% 29.66 in 4.0 mi North 10.4 mph 21.9 mph N/A Snow Light Snow
11:38 AM 35.6 °F 27.5 °F 32.0 °F 87% 29.68 in 5.0 mi North 11.5 mph 19.6 mph N/A Snow Light Snow
11:59 AM 35.6 °F 28.0 °F 32.0 °F 87% 29.68 in 7.0 mi North 10.4 mph 20.7 mph N/A   Overcast
12:18 PM 35.6 °F 28.0 °F 32.0 °F 87% 29.69 in 4.0 mi North 10.4 mph 19.6 mph N/A Snow Light Snow
12:39 PM 35.6 °F 28.6 °F 32.0 °F 87% 29.69 in 10.0 mi North 9.2 mph 18.4 mph N/A   Overcast
12:59 PM 35.6 °F 27.5 °F 32.0 °F 87% 29.70 in 7.0 mi North 11.5 mph 20.7 mph N/A   Overcast
1:18 PM 35.6 °F 29.2 °F 32.0 °F 87% 29.70 in 4.0 mi NNW 8.1 mph - N/A   Overcast
1:39 PM 33.8 °F 25.3 °F 32.0 °F 93% 29.71 in 2.0 mi NNW 11.5 mph 18.4 mph N/A Snow Light Snow
1:59 PM 33.8 °F 25.3 °F 32.0 °F 93% 29.71 in 1.5 mi NNW 11.5 mph 17.3 mph N/A Snow Light Snow
2:18 PM 33.8 °F 26.4 °F 32.0 °F 93% 29.72 in 7.0 mi North 9.2 mph 16.1 mph N/A   Overcast
2:39 PM 35.6 °F 28.6 °F 30.2 °F 81% 29.73 in 10.0 mi NNW 9.2 mph 17.3 mph N/A   Overcast
2:58 PM 35.6 °F 27.1 °F 30.2 °F 81% 29.74 in 10.0 mi North 12.7 mph 19.6 mph N/A   Overcast
3:19 PM 35.6 °F 26.6 °F 30.2 °F 81% 29.75 in 7.0 mi North 13.8 mph 21.9 mph N/A   Overcast
3:39 PM 33.8 °F 23.9 °F 30.2 °F 87% 29.75 in 10.0 mi North 15.0 mph 27.6 mph N/A   Overcast
3:58 PM 33.8 °F 24.8 °F 28.4 °F 81% 29.76 in 10.0 mi North 12.7 mph 19.6 mph N/A   Overcast
4:19 PM 33.8 °F 24.8 °F 30.2 °F 87% 29.77 in 2.5 mi North 12.7 mph 18.4 mph N/A Snow Light Snow
4:38 PM 33.8 °F 25.3 °F 30.2 °F 87% 29.78 in 10.0 mi North 11.5 mph 18.4 mph N/A   Overcast
4:59 PM 33.8 °F 24.3 °F 30.2 °F 87% 29.79 in 3.0 mi North 13.8 mph 18.4 mph N/A Snow Light Snow
5:19 PM 33.8 °F 25.8 °F 30.2 °F 87% 29.80 in 7.0 mi NNW 10.4 mph 17.3 mph N/A   Overcast
5:38 PM 33.8 °F 24.3 °F 28.4 °F 81% 29.81 in 10.0 mi NNW 13.8 mph 20.7 mph N/A   Overcast
5:59 PM 33.8 °F 25.3 °F 28.4 °F 81% 29.82 in 10.0 mi NNW 11.5 mph 20.7 mph N/A   Overcast
6:18 PM 32.0 °F 23.6 °F 28.4 °F 87% 29.84 in 10.0 mi NNW 10.4 mph 21.9 mph N/A   Overcast
6:39 PM 32.0 °F 24.8 °F 28.4 °F 87% 29.85 in 10.0 mi NNW 8.1 mph 18.4 mph N/A   Overcast
6:59 PM 32.0 °F 22.5 °F 26.6 °F 80% 29.86 in 10.0 mi NNW 12.7 mph 20.7 mph N/A   Overcast
7:18 PM 32.0 °F 23.0 °F 26.6 °F 80% 29.86 in 10.0 mi NNW 11.5 mph 19.6 mph N/A   Overcast
7:39 PM 32.0 °F 23.6 °F 28.4 °F 87% 29.87 in 7.0 mi NNW 10.4 mph 17.3 mph N/A Snow Light Snow
7:58 PM 32.0 °F 22.1 °F 28.4 °F 87% 29.88 in 7.0 mi NNW 13.8 mph 18.4 mph N/A   Overcast
8:19 PM 32.0 °F 24.2 °F 28.4 °F 87% 29.89 in 10.0 mi NNW 9.2 mph - N/A   Overcast
8:39 PM 32.0 °F 22.1 °F 28.4 °F 87% 29.89 in 10.0 mi NW 13.8 mph 20.7 mph N/A   Overcast
8:58 PM 32.0 °F 23.0 °F 28.4 °F 87% 29.90 in 10.0 mi NNW 11.5 mph 17.3 mph N/A   Overcast
9:19 PM 32.0 °F 24.2 °F 28.4 °F 87% 29.90 in 10.0 mi NNW 9.2 mph - N/A   Overcast
9:39 PM 32.0 °F 22.1 °F 26.6 °F 80% 29.91 in 10.0 mi NNW 13.8 mph 18.4 mph N/A   Overcast
9:58 PM 32.0 °F 22.5 °F 26.6 °F 80% 29.91 in 10.0 mi NNW 12.7 mph 19.6 mph N/A   Overcast
10:19 PM 32.0 °F 24.2 °F 26.6 °F 80% 29.91 in 10.0 mi NNW 9.2 mph - N/A   Overcast
10:38 PM 32.0 °F 25.6 °F 26.6 °F 80% 29.91 in 10.0 mi NNW 6.9 mph - N/A   Overcast
10:59 PM 32.0 °F 24.2 °F 26.6 °F 80% 29.92 in 10.0 mi NNW 9.2 mph - N/A   Overcast
11:19 PM 32.0 °F 24.8 °F 26.6 °F 80% 29.92 in 7.0 mi NNW 8.1 mph - N/A   Overcast
11:39 PM 30.2 °F 22.6 °F 26.6 °F 86% 29.92 in 7.0 mi NNW 8.1 mph - N/A   Overcast
11:59 PM 30.2 °F 23.4 °F 26.6 °F 86% 29.92 in 10.0 mi NNW 6.9 mph - N/A   Overcast